Kuchera_Ratio
0.0 0.0 0.0 0.0 0.0 0.0 0.0 0.0 0.0 0.0 0.0 0.0 0.0 0.0 0.0 0.0 0.0 0.0 0.0 0.0 0.0 0.0
0.0 0.0 0.0 0.0 0.0 0.0 0.0 0.0 0.0 0.0 0.0 0.0 0.0 0.0 0.0 0.0 0.0 0.0 0.0 0.0 0.0 0.0
0.0 0.0 0.0 0.0 0.0 0.0 0.0 0.0 0.0 0.0 0.0 0.0 0.0 0.0 0.0 0.0 0.0 0.0 0.0 0.0 0.0 0.0
0.0 0.0 0.0 0.0 0.0 0.0 0.0 0.0 0.0 0.0 0.0 0.0 0.0 0.0 0.0 0.0 0.0 0.0 0.0 0.0 0.0 0.0
0.0 0.0 0.0 0.0 0.0 0.0 0.0 1.7 0.0 0.0 0.4 0.4 0.4 0.0 0.0 0.0 0.0 0.0 0.0 0.0 0.0 0.0
0.0 0.2 0.0 0.0 0.3 0.8 1.1 1.8 1.2 1.9 2.6 3.0 2.6 1.0 1.0 0.7 1.2 0.6 1.0 0.7 0.9 1.5
1.6 1.3 1.0 1.7 1.1 1.7 2.2 3.0 5.1 5.2 4.9 4.5 4.2 3.6 3.3 3.5 4.0 3.6 4.3 4.0 3.6 4.1
4.2 3.5 3.3 3.8 4.0 6.0 6.0 7.5 7.9 8.3 8.2 7.7 6.9 6.2 6.2 5.2 4.9 5.4 6.4 6.9 6.3 6.1
6.4 6.6 6.6 7.0 8.6 8.7 9.2 9.3 9.3 9.7 10.1 10.6 8.6 3.4 2.2 6.1 6.7 7.3 7.3 8.0 8.8 4.2
9.6 9.3 8.9 10.0 10.1 10.8 11.0 10.6 11.3 11.3 11.0 10.7 6.7 1.2 0.9 2.6 7.4 7.9 8.6 9.2 9.4 7.6
10.4 11.0 10.6 10.7 11.2 11.4 11.1 11.5 11.8 11.8 10.5 8.2 4.8 0.0 0.5 2.5 8.7 9.4 9.8 9.8 9.9 9.9
10.4 11.2 11.2 12.1 12.1 12.0 12.2 12.4 12.5 10.6 9.3 7.8 5.7 0.0 0.1 5.8 9.6 10.4 11.6 11.3 10.4 10.5
10.4 11.1 12.1 12.1 12.3 12.1 12.3 12.2 10.8 10.5 9.5 3.4 6.8 0.0 1.2 6.1 9.4 12.2 10.8 11.2 9.5 4.4
10.8 11.7 12.0 12.4 12.5 12.4 12.2 12.1 12.2 10.8 9.8 9.1 6.0 3.4 1.0 3.3 9.6 10.3 11.3 10.9 12.2 8.8